TimeCDT,TemperatureF,Dew PointF,Humidity,Sea Level PressureIn,VisibilityMPH,Wind Direction,Wind SpeedMPH,Gust SpeedMPH,PrecipitationIn,Events,Conditions,WindDirDegrees,DateUTC
12:15 AM,64.8,63.9,97,30.10,10.0,SSW,3.5,-,N/A,,Clear,210,2013-08-29 05:15:00
12:35 AM,67.1,64.0,90,30.10,10.0,Calm,Calm,-,N/A,,Clear,0,2013-08-29 05:35:00
12:55 AM,63.9,62.6,96,30.11,7.0,West,4.6,-,N/A,,Clear,270,2013-08-29 05:55:00
1:15 AM,65.1,62.4,91,30.11,10.0,Calm,Calm,-,N/A,,Clear,0,2013-08-29 06:15:00
1:35 AM,64.4,63.5,97,30.11,7.0,Calm,Calm,-,N/A,,Clear,0,2013-08-29 06:35:00
1:55 AM,63.7,62.8,97,30.10,5.0,Calm,Calm,-,N/A,,Clear,0,2013-08-29 06:55:00
2:15 AM,63.1,62.4,97,30.11,3.0,Calm,Calm,-,N/A,,Clear,0,2013-08-29 07:15:00
2:35 AM,62.4,61.9,98,30.10,4.0,Calm,Calm,-,N/A,,Clear,0,2013-08-29 07:35:00
2:55 AM,61.0,60.8,99,30.10,4.0,Calm,Calm,-,N/A,,Clear,0,2013-08-29 07:55:00
3:15 AM,62.1,61.9,99,30.11,7.0,Calm,Calm,-,N/A,,Clear,0,2013-08-29 08:15:00
3:35 AM,62.1,61.7,99,30.11,5.0,Calm,Calm,-,N/A,,Clear,0,2013-08-29 08:35:00
3:55 AM,62.2,61.9,99,30.10,5.0,Calm,Calm,-,N/A,,Clear,0,2013-08-29 08:55:00
4:15 AM,62.2,61.9,99,30.10,7.0,Calm,Calm,-,N/A,,Clear,0,2013-08-29 09:15:00
4:35 AM,62.4,62.1,99,30.10,5.0,Calm,Calm,-,N/A,,Clear,0,2013-08-29 09:35:00
4:55 AM,63.1,62.8,99,30.11,7.0,Calm,Calm,-,N/A,,Scattered Clouds,0,2013-08-29 09:55:00
5:15 AM,62.8,62.2,98,30.11,7.0,Calm,Calm,-,N/A,,Mostly Cloudy,0,2013-08-29 10:15:00
5:35 AM,63.1,62.8,99,30.10,5.0,Calm,Calm,-,N/A,,Scattered Clouds,0,2013-08-29 10:35:00
5:55 AM,63.3,62.8,98,30.11,7.0,Calm,Calm,-,N/A,,Scattered Clouds,0,2013-08-29 10:55:00
6:15 AM,63.5,63.1,99,30.10,7.0,Calm,Calm,-,N/A,,Scattered Clouds,0,2013-08-29 11:15:00
6:35 AM,63.7,63.1,98,30.11,5.0,Calm,Calm,-,N/A,,Mostly Cloudy,0,2013-08-29 11:35:00
6:55 AM,64.4,64.0,99,30.11,4.0,Calm,Calm,-,N/A,,Scattered Clouds,0,2013-08-29 11:55:00
7:15 AM,65.5,65.1,99,30.12,5.0,Calm,Calm,-,N/A,,Clear,0,2013-08-29 12:15:00
7:35 AM,66.7,66.4,99,30.12,5.0,Calm,Calm,-,N/A,,Clear,0,2013-08-29 12:35:00
7:55 AM,67.5,66.7,98,30.12,7.0,Calm,Calm,-,N/A,,Clear,0,2013-08-29 12:55:00
8:15 AM,68.5,66.6,93,30.12,10.0,Calm,Calm,-,N/A,,Clear,0,2013-08-29 13:15:00
8:35 AM,69.6,67.1,92,30.11,10.0,SSW,3.5,-,N/A,,Clear,200,2013-08-29 13:35:00
8:55 AM,70.9,67.1,88,30.10,10.0,Calm,Calm,-,N/A,,Clear,0,2013-08-29 13:55:00
9:15 AM,73.4,67.5,82,30.10,10.0,WSW,5.8,-,N/A,,Clear,240,2013-08-29 14:15:00
9:35 AM,75.0,67.3,77,30.10,10.0,SW,6.9,-,N/A,,Clear,230,2013-08-29 14:35:00
9:55 AM,76.6,66.9,72,30.10,10.0,SW,8.1,-,N/A,,Clear,230,2013-08-29 14:55:00
10:15 AM,77.4,66.6,69,30.10,10.0,SW,6.9,-,N/A,,Scattered Clouds,220,2013-08-29 15:15:00
10:35 AM,76.8,67.1,72,30.10,10.0,SSW,5.8,-,N/A,,Clear,200,2013-08-29 15:35:00
10:55 AM,77.7,66.9,69,30.10,10.0,WSW,5.8,-,N/A,,Scattered Clouds,250,2013-08-29 15:55:00
11:15 AM,79.5,65.8,63,30.10,10.0,SSW,6.9,-,N/A,,Scattered Clouds,200,2013-08-29 16:15:00
11:35 AM,80.8,65.1,59,30.09,10.0,South,8.1,-,N/A,,Scattered Clouds,180,2013-08-29 16:35:00
11:55 AM,79.2,65.3,62,30.08,10.0,South,8.1,-,N/A,,Mostly Cloudy,190,2013-08-29 16:55:00
12:15 PM,79.7,64.9,61,30.08,10.0,South,6.9,-,N/A,,Mostly Cloudy,190,2013-08-29 17:15:00
12:35 PM,81.7,65.5,58,30.07,10.0,SSW,9.2,-,N/A,,Mostly Cloudy,200,2013-08-29 17:35:00
12:55 PM,81.0,64.9,58,30.06,10.0,SW,6.9,-,N/A,,Scattered Clouds,220,2013-08-29 17:55:00
1:15 PM,81.3,65.7,59,30.06,10.0,SW,6.9,-,N/A,,Mostly Cloudy,220,2013-08-29 18:15:00
1:35 PM,80.4,65.5,60,30.06,10.0,SW,3.5,-,N/A,,Mostly Cloudy,220,2013-08-29 18:35:00
1:55 PM,80.2,66.9,64,30.06,10.0,SW,8.1,-,N/A,,Mostly Cloudy,230,2013-08-29 18:55:00
2:15 PM,78.8,65.8,64,30.05,10.0,SSW,3.5,-,N/A,,Mostly Cloudy,200,2013-08-29 19:15:00
2:35 PM,77.4,66.9,70,30.04,10.0,SSW,4.6,-,N/A,Rain,Light Rain,210,2013-08-29 19:35:00
2:55 PM,76.6,68.0,75,30.04,10.0,Calm,Calm,-,N/A,,Mostly Cloudy,0,2013-08-29 19:55:00
3:15 PM,77.0,67.3,72,30.04,10.0,Calm,Calm,-,N/A,Rain,Light Rain,0,2013-08-29 20:15:00
3:35 PM,76.1,69.3,79,30.06,7.0,Calm,Calm,-,N/A,Rain,Light Rain,0,2013-08-29 20:35:00
3:55 PM,74.7,70.7,87,30.06,7.0,NE,3.5,-,N/A,,Scattered Clouds,40,2013-08-29 20:55:00
4:15 PM,74.3,70.2,87,30.09,7.0,North,4.6,-,N/A,Thunderstorm,Mostly Cloudy,10,2013-08-29 21:15:00
4:35 PM,73.6,68.9,85,30.08,10.0,Calm,Calm,-,N/A,Rain,Light Rain,0,2013-08-29 21:35:00
4:55 PM,72.5,69.1,89,30.03,7.0,South,4.6,-,N/A,Rain-Thunderstorm,Thunderstorms and Rain,170,2013-08-29 21:55:00
5:15 PM,71.8,69.3,92,30.02,4.0,SSE,5.8,-,N/A,Rain,Rain,160,2013-08-29 22:15:00
5:35 PM,71.6,68.7,91,30.00,7.0,SSE,6.9,-,N/A,Rain,Light Rain,160,2013-08-29 22:35:00
5:55 PM,71.6,67.3,86,30.01,10.0,South,3.5,-,N/A,,Mostly Cloudy,170,2013-08-29 22:55:00
6:15 PM,71.2,67.3,87,30.00,10.0,South,3.5,-,N/A,Rain,Light Rain,190,2013-08-29 23:15:00
6:35 PM,70.7,67.3,89,30.00,7.0,South,3.5,-,N/A,Rain,Light Rain,170,2013-08-29 23:35:00
6:55 PM,70.3,67.5,91,30.00,7.0,SSW,5.8,-,N/A,Rain,Light Rain,200,2013-08-29 23:55:00
7:15 PM,70.0,67.6,92,30.01,5.0,SSW,6.9,-,N/A,Rain,Rain,200,2013-08-30 00:15:00
7:35 PM,70.0,68.2,94,29.95,5.0,South,15.0,21.9,N/A,Rain,Rain,170,2013-08-30 00:35:00
7:55 PM,70.0,67.3,91,29.96,10.0,South,9.2,17.3,N/A,Rain,Light Rain,180,2013-08-30 00:55:00
8:15 PM,69.4,66.6,91,29.96,10.0,South,8.1,-,N/A,Rain-Thunderstorm,Light Thunderstorms and Rain,190,2013-08-30 01:15:00
8:35 PM,68.9,67.1,94,29.96,7.0,SW,5.8,-,N/A,Rain,Rain,220,2013-08-30 01:35:00
8:55 PM,68.5,66.2,92,29.97,10.0,SSW,11.5,17.3,N/A,Rain,Light Rain,200,2013-08-30 01:55:00
9:15 PM,67.1,64.0,90,29.93,10.0,South,11.5,19.6,N/A,Rain-Thunderstorm,Light Thunderstorms and Rain,170,2013-08-30 02:15:00
9:35 PM,67.1,64.4,91,29.92,10.0,South,6.9,-,N/A,Rain,Light Rain,170,2013-08-30 02:35:00
9:55 PM,67.1,64.8,92,29.92,10.0,South,12.7,18.4,N/A,Rain,Light Rain,180,2013-08-30 02:55:00
10:15 PM,67.6,65.5,93,29.90,10.0,South,9.2,19.6,N/A,,Clear,170,2013-08-30 03:15:00
10:35 PM,68.0,65.5,92,29.92,10.0,South,6.9,-,N/A,,Scattered Clouds,190,2013-08-30 03:35:00
10:55 PM,67.6,64.9,91,29.92,10.0,SW,5.8,-,N/A,,Scattered Clouds,230,2013-08-30 03:55:00
11:15 PM,67.1,64.4,91,29.93,10.0,South,3.5,-,N/A,,Clear,190,2013-08-30 04:15:00
11:35 PM,67.1,64.4,91,29.94,10.0,SSW,3.5,-,N/A,,Scattered Clouds,210,2013-08-30 04:35:00
11:55 PM,67.6,64.4,89,29.94,10.0,South,4.6,-,N/A,,Overcast,180,2013-08-30 04:55:00